Retour au catalogue

STARLINK-34088

ActifCommunicationsVLEO
NORAD 64025·PAYLOAD·🇺🇸 United States

Lancé May 16, 2025 depuis Vandenberg Space Force Base

Loading…

Prochains Passages (prochaines 24 heures)

TLE

FraisSource: CelesTrak SupGP

Époque: Sep 15, 2026, 02:49 UTC

1 64025C 25102D   26258.11784722  .00089857  00000+0  31250-2 0  2589
2 64025  70.0009 355.1254 0003487 270.3934 303.4805 15.29541242    19

Suivez STARLINK-34088 en temps réel avec AllMySat

Download on the App Store